Regional Weather Roundup
Issued by NWS

Home | Current Version | Previous Version | Text Only | Print | Product List | Glossary Off
Versions: 1 2 3 4 5 6 7 8 9 10 11 12 13 14 15 16 17 18 19 20 21 22 23 24 25 26 27 28 29 30 31 32 33 34 35 36 37 38 39 40 41 42 43 44 45 46 47 48 49 50

000
ASUS43 KMPX 231401
RWRMN
WEATHER ROUNDUP FOR MINNESOTA
NATIONAL WEATHER SERVICE TWIN CITIES/CHANHASSEN MN
800 AM CST SUN NOV 23 2014


NOTE: "FAIR" INDICATES FEW OR NO CLOUDS BELOW 12,000 FEET WITH NO
SIGNIFICANT WEATHER AND/OR OBSTRUCTIONS TO VISIBILITY. N/A MEANS
CURRENT SKY AND/OR WEATHER CONDITIONS ARE NOT AVAILABLE.

MNZ060>063-068>070-231500-
   Twin Cities Metro

CITY           SKY/WX    TMP DP  RH WIND       PRES   REMARKS
TWIN CITIES    CLOUDY    50  47  89 S3        29.46S FOG
ST PAUL        CLOUDY    45  45 100 SE8       29.47S FOG
CRYSTAL        FOG       44  42  93 S5        29.44S VSB 1/4
LAKEVILLE      CLOUDY    48  46  93 S7        29.46S FOG
EDEN PRAIRIE   CLOUDY    50  48  93 SW7       29.44S FOG
SOUTH ST PAUL  CLOUDY    48  47  95 SE3       29.47R FOG
LAKE ELMO      CLOUDY    46  46 100 S8        29.47S FOG
$$
MNZ001>005-007-008-013>017-022>024-027-028-231500-
   Northwest Minnesota

CITY           SKY/WX    TMP DP  RH WIND       PRES   REMARKS
BEMIDJI        FOG       32  32 100 CALM      29.39S VSB 1
HALLOCK        CLOUDY    34  30  86 S5        29.35S FOG     WCI  30
ROSEAU         CLOUDY    36  30  80 SW7       29.38R HAZE
WARROAD        CLOUDY    34  30  86 CALM      29.38R FOG
THIEF RVR FALL CLOUDY    32  30  93 S5        29.37F VSB 1   WCI  27
CROOKSTON      MOCLDY    32  30  93 S7        29.39S FOG     WCI  26
FOSSTON        CLOUDY    30  30 100 CALM      29.39F FOG
DETROIT LAKES  CLOUDY    32  32 100 CALM      29.42R FOG
MOORHEAD       CLOUDY    34  34 100 S5        29.42R FOG     WCI  30
PARK RAPIDS    MIX PCPN  32  31  96 CALM      29.39S FOG
MAHNOMEN       CLOUDY    32  31  97 CALM      29.38F FOG
$$
MNZ006-009>011-018-025>026-231500-
   North Central Minnesota

CITY           SKY/WX    TMP DP  RH WIND       PRES   REMARKS
BAUDETTE       CLOUDY    33  32  96 CALM      29.39R FOG
FLAG ISLAND    CLOUDY    34  30  86 SE10      29.37S FOG     WCI  26
INTL FALLS     CLOUDY    33  32  96 SE3       29.40R FOG
WASKISH        CLOUDY    34  34 100 CALM      29.40R FOG
BIG FORK       CLOUDY    34  32  93 CALM      29.40R FOG
LONGVILLE      FOG       34  34 100 CALM      29.41R VSB 1/4
GRAND RAPIDS   CLOUDY    36  32  87 S3        29.40R VSB 1/4
CRANE LAKE     FOG       30  30 100 CALM      29.42S VSB 3/4
ORR            FOG       34  30  86 CALM      29.36F VSB 3/4
COOK           FOG       34  34 100 CALM      29.40S VSB 1/4
WALKER         CLOUDY    33  32  99 CALM      29.39R FOG
$$
MNZ012-019>021-037-231500-
   Northeast Minnesota

CITY           SKY/WX    TMP DP  RH WIND       PRES   REMARKS
DULUTH         FOG       36  34  92 S3        29.41R VSB 1/8
ELY            CLOUDY    34  34 100 CALM      29.40S FOG
HIBBING        FOG       35  33  92 CALM      29.39S VSB 1/4
EVELETH        FOG       36  36 100 CALM      29.40F VSB 1/4
DULUTH HARBOR  FOG       37  37 100 CALM      29.44R VSB 1/4
TWO HARBORS    HAZE      37  34  87 NE3       29.41R VSB 1/2
SILVER BAY     CLOUDY    37  36  93 N5        29.42R FOG
GRAND MARAIS     N/A     38  36  92 NE5       29.44F
G MARAIS ARPRT CLOUDY    34  30  86 E7        29.42F VSB 1/2 WCI  28
$$
MNZ029>031-032-039>041-046>048-054>057-064-231500-
   West Central Minnesota

CITY           SKY/WX    TMP DP  RH WIND       PRES   REMARKS
FERGUS FALLS   MOCLDY    34  30  86 CALM      29.45S
WHEATON        MOCLDY    36  32  87 W9        29.47R
MORRIS           N/A     36  32  87 CALM      29.44R
ALEXANDRIA     CLOUDY    37  32  82 SW3       29.42S
ELBOW LAKE       N/A     34  32  93 CALM      29.43R
WADENA         CLOUDY    34  34 100 CALM      29.39F FOG
GLENWOOD       MOCLDY    34  32  93 SE3       29.43F
APPLETON       CLOUDY    37  32  81 SW7       29.47R
BENSON         CLOUDY    36  34  93 SW3       29.44R
ORTONVILLE     CLOUDY    37  32  81 W8        29.46R
MADISON        CLOUDY    39  36  87 SW7       29.47R
WILLMAR        MOCLDY    36  34  93 SW5       29.47S FOG
$$
MNZ033>034-036-042>043-049>051-058-059-231500-
   Central Minnesota

CITY           SKY/WX    TMP DP  RH WIND       PRES   REMARKS
ST CLOUD       CLOUDY    37  36  96 W3        29.45R FOG
SAUK CENTRE    CLOUDY    33  32  94 CALM      29.44S
PAYNESVILLE    CLOUDY    33  32  95 CALM      29.46S
AITKIN         HAZE      37  34  87 CALM      29.41R VSB 1
PINE RIVER     CLOUDY    34  34 100 CALM      29.47R FOG
BRAINERD       FOG       33  33 100 SW5       29.44R VSB 1/2 WCI  29
STAPLES        CLOUDY    32  32 100 CALM      29.43R FOG
LONG PRAIRIE   CLOUDY    32  32 100 S3        29.43F
LITTLE FALLS   CLOUDY    34  32  93 CALM      29.45R FOG
LITCHFIELD     CLOUDY    39  39 100 W3        29.45S FOG
BUFFALO        FOG       40  38  95 CALM      29.45F VSB<1/4
MAPLE LAKE     FOG       40  40  99 CALM      29.45F VSB<1/4
$$
MNZ037-044-045-052-053-231500-
   East Central Minnesota

CITY           SKY/WX    TMP DP  RH WIND       PRES   REMARKS
PRINCETON      FOG       41  39  93 SW3       29.45R VSB<1/4
MORA           FOG       36  36 100 CALM      29.45S VSB 3/4
CAMBRIDGE      HAZE      45  37  76 CALM      29.43R VSB<1/4
RUSH CITY      FOG       41  40  97 CALM      29.45R VSB 1/2
MOOSE LAKE     FOG       37  36  93 CALM      29.41R VSB<1/4
HINCKLEY       FOG       37  37 100 CALM      29.44R VSB<1/4
CLOQUET        FOG       36  34  93 CALM      29.41S VSB<1/4
MCGREGOR       CLOUDY    36  36 100 CALM      29.42R
$$
MNZ071>073-080-081-089-090-097-098-231500-
   Southwest Minnesota

CITY           SKY/WX    TMP DP  RH WIND       PRES   REMARKS
MONTEVIDEO     CLOUDY    37  36  93 SW5       29.46S
GRANITE FALLS  CLOUDY    37  34  90 W9        29.47F
CANBY          CLOUDY    39  35  84 W9        29.49R
MARSHALL       CLOUDY    43  34  70 W14       29.46S
REDWOOD FALLS  CLOUDY    42  38  85 NW10      29.44R
OLIVIA         CLOUDY    39  37  93 NW7       29.45S
PIPESTONE      CLOUDY    39  36  87 NW13      29.46S
WINDOM         CLOUDY    48  46  93 CALM      29.44S FOG
WORTHINGTON    CLOUDY    45  43  93 W8        29.45S
JACKSON        CLOUDY    48  46  93 SW6       29.45S FOG
TRACY          CLOUDY    44  39  82 NW10      29.45S
SLAYTON        LGT RAIN  40  40 100 W12       29.45S
$$
MNZ065>067-074>077-082>085-091>093-231500-
   South Central Minnesota

CITY           SKY/WX    TMP DP  RH WIND       PRES   REMARKS
MANKATO        CLOUDY    50  46  87 S10       29.46R
NEW ULM        FOG       45  45 100 CALM      29.45S VSB 1/4
ST JAMES       CLOUDY    48  46  93 SW3       29.46R FOG
FAIRMONT       CLOUDY    50  46  87 S10       29.46R
GLENCOE        CLOUDY    47  47 100 S6        29.43F FOG
FARIBAULT      LGT RAIN  48  48 100 S6        29.48S
OWATONNA       DRZL/FOG  48  46  93 S8        29.48S VSB 1
WASECA         FOG       48  45  87 S9        29.49S VSB 3/4
ALBERT LEA     CLOUDY    52  50  93 S12G18    29.48S FOG
$$
MNZ078>079-086>088-094>096-231500-
   Southeast Minnesota

CITY           SKY/WX    TMP DP  RH WIND       PRES   REMARKS
ROCHESTER      FOG       48  48 100 S14       29.52R VSB 1/2
RED WING         N/A     52  48  87 S8        29.49R
STANTON        CLOUDY    49  47  93 S6        29.46S FOG
DODGE CENTER   FOG       48  48 100 S16       29.49S VSB 1/2
WINONA         CLOUDY    54  50  87 S5        29.52S
AUSTIN         CLOUDY    48  48 100 S13       29.50R FOG
PRESTON        FOG       47  46  97 S14       29.53R VSB 1
$$
ABBREVIATIONS USED IN REMARKS
   TC - TEMPERATURES IN CELSIUS
  WCI - WIND CHILL INDEX
   HX - HEAT INDEX
  VSB - VISIBILITY
$$



USA.gov is the U.S. government's official web portal to all federal, state and local government web resources and services.